EW4504 Weather Reports


time (UTC)temp
C
wind
direction
speed
KPH
gust
KPH
rain 1hr
cm
rain 24hr
cm
rain mn
cm
humidity
%
barometer
mb
20260502200531 19 352 12.9 29.0 0.00 0.00 0.00 38 1012.3
20260502200047 19 26 12.9 29.0 0.00 0.00 0.00 38 1012.5
20260502195530 20 319 9.7 16.1 0.00 0.00 0.00 40 1012.4
20260502195030 20 313 6.4 24.1 0.00 0.00 0.00 42 1012.4
20260502194549 19 12 8.0 25.7 0.00 0.00 0.00 41 1012.3
20260502194031 20 333 11.3 25.7 0.00 0.00 0.00 41 1012.4
20260502193531 20 313 4.8 20.9 0.00 0.00 0.00 43 1012.3
20260502193057 19 319 8.0 27.4 0.00 0.00 0.00 43 1012.3
20260502192531 19 305 6.4 27.4 0.00 0.00 0.00 43 1012.4
20260502192030 19 300 9.7 27.4 0.00 0.00 0.00 44 1012.5
20260502191549 20 245 6.4 20.9 0.00 0.00 0.00 45 1012.5
20260502191032 20 296 8.0 29.0 0.00 0.00 0.00 45 1012.6
20260502190533 19 321 11.3 29.0 0.00 0.00 0.00 45 1012.7
20260502190040 19 317 8.0 22.5 0.00 0.00 0.00 45 1012.5
20260502185531 20 338 8.0 24.1 0.00 0.00 0.00 45 1012.6
20260502185028 20 242 8.0 24.1 0.00 0.00 0.00 46 1012.4
20260502184542 20 291 6.4 14.5 0.00 0.00 0.00 46 1012.4
20260502184029 20 287 6.4 20.9 0.00 0.00 0.00 46 1012.3
20260502183532 19 271 9.7 20.9 0.00 0.00 0.00 46 1012.4
20260502183036 20 324 9.7 19.3 0.00 0.00 0.00 47 1012.4
20260502182529 20 292 6.4 20.9 0.00 0.00 0.00 47 1012.4
20260502182028 19 263 6.4 25.7 0.00 0.00 0.00 48 1012.4
20260502181548 19 198 4.8 25.7 0.00 0.00 0.00 48 1012.4
20260502181029 20 332 8.0 20.9 0.00 0.00 0.00 47 1012.4
20260502180530 19 293 6.4 20.9 0.00 0.00 0.00 49 1012.4
20260502164028 18 287 4.8 17.7 0.00 0.00 0.00 56 1013.1
20260502163528 18 333 6.4 17.7 0.00 0.00 0.00 57 1013.1
20260502163044 18 246 8.0 17.7 0.00 0.00 0.00 58 1013.1
20260502162529 17 245 4.8 17.7 0.00 0.00 0.00 58 1013.1
20260502162028 18 225 6.4 17.7 0.00 0.00 0.00 57 1013.0
20260502161603 18 308 6.4 17.7 0.00 0.00 0.00 58 1013.0
20260502161038 18 17 4.8 17.7 0.00 0.00 0.00 58 1013.1
20260502160530 17 332 6.4 17.7 0.00 0.00 0.00 58 1013.2
20260502160103 18 331 9.7 17.7 0.00 0.00 0.00 58 1013.1
20260502152029 16 306 1.6 12.9 0.00 0.00 0.00 64 1013.4
20260502151542 15 42 3.2 11.3 0.00 0.00 0.00 64 1013.4
20260502151028 15 360 3.2 12.9 0.00 0.00 0.00 65 1013.3
20260502150529 15 313 3.2 12.9 0.00 0.00 0.00 65 1013.4
20260502130528 12 0 1.6 8.0 0.00 0.00 0.00 70 1012.8
20260502123529 12 0 1.6 8.0 0.00 0.00 0.00 69 1012.0
20260502123111 12 297 0.0 4.8 0.00 0.00 0.00 69 1012.1
20260502122528 12 294 1.6 4.8 0.00 0.00 0.00 70 1012.4
20260502122032 12 0 0.0 4.8 0.00 0.00 0.00 70 1012.7
20260502121543 12 0 0.0 4.8 0.00 0.00 0.00 70 1012.3
20260502121029 12 258 1.6 4.8 0.00 0.00 0.00 70 1012.2
20260502120532 12 223 0.0 3.2 0.00 0.00 0.00 70 1012.2
20260502115530 12 0 0.0 4.8 0.00 0.00 0.00 70 1012.3
20260502115029 12 0 0.0 4.8 0.00 0.00 0.00 70 1012.3
20260502114537 12 0 1.6 4.8 0.00 0.00 0.00 69 1011.8
20260502114028 12 220 1.6 4.8 0.00 0.00 0.00 69 1011.6
20260502113528 12 0 0.0 4.8 0.00 0.00 0.00 70 1012.1
20260502113043 12 218 0.0 4.8 0.00 0.00 0.00 69 1012.2
20260502112530 12 288 1.6 4.8 0.00 0.00 0.00 69 1012.1
20260502112027 12 0 0.0 6.4 0.00 0.00 0.00 70 1012.5
20260502111540 12 274 0.0 6.4 0.00 0.00 0.00 70 1012.3
20260502111030 12 273 1.6 4.8 0.00 0.00 0.00 71 1012.4
20260502110529 12 0 0.0 4.8 0.00 0.00 0.00 72 1012.7
20260502110048 12 282 0.0 4.8 0.00 0.00 0.00 72 1012.5
20260502105528 12 284 0.0 6.4 0.00 0.00 0.00 72 1012.3
20260502105029 12 286 1.6 6.4 0.00 0.00 0.00 72 1012.2
20260502104537 12 290 3.2 6.4 0.00 0.00 0.00 72 1012.1
20260502104029 12 314 0.0 3.2 0.00 0.00 0.00 72 1011.8
20260502103529 12 316 1.6 3.2 0.00 0.00 0.00 72 1011.8
20260502103035 12 0 0.0 3.2 0.00 0.00 0.00 72 1011.7
20260502102528 12 316 0.0 1.6 0.00 0.00 0.00 72 1011.6
20260502102035 12 0 0.0 3.2 0.00 0.00 0.00 72 1011.7
20260502101550 13 0 0.0 4.8 0.00 0.00 0.00 72 1011.5
20260502101027 13 316 0.0 4.8 0.00 0.00 0.00 72 1011.4
20260502100527 13 342 1.6 9.7 0.00 0.00 0.00 72 1011.0
20260502091027 13 320 1.6 9.7 0.00 0.00 0.00 74 1011.6
20260502090528 13 315 3.2 8.0 0.00 0.00 0.00 75 1011.6
20260502071032 13 0 0.0 4.8 0.00 0.00 0.00 81 1011.9
20260502070532 13 296 1.6 4.8 0.00 0.00 0.00 81 1012.1
20260502070042 13 0 0.0 3.2 0.00 0.00 0.00 82 1012.0
20260502065530 13 0 0.0 3.2 0.00 0.00 0.00 82 1012.0
20260502065027 13 0 0.0 3.2 0.00 0.00 0.00 82 1012.4
20260502064543 13 0 0.0 3.2 0.00 0.00 0.00 81 1012.4
20260502064031 13 0 0.0 3.2 0.00 0.00 0.00 81 1012.3
20260502063527 13 0 0.0 1.6 0.00 0.00 0.00 82 1012.6
20260502063052 13 0 0.0 0.0 0.00 0.00 0.00 82 1012.7
20260502062527 14 0 0.0 3.2 0.00 0.00 0.00 82 1012.7
20260502062026 14 0 0.0 3.2 0.00 0.00 0.00 82 1012.6
20260502061537 14 0 0.0 3.2 0.00 0.00 0.00 82 1012.6
20260502061030 14 294 0.0 3.2 0.00 0.00 0.00 81 1012.6
20260502060533 14 0 0.0 4.8 0.00 0.00 0.00 81 1012.7
20260502060044 14 0 0.0 4.8 0.00 0.00 0.00 81 1012.8
20260502055530 14 0 0.0 0.0 0.00 0.00 0.00 81 1012.7
20260502055032 14 0 0.0 0.0 0.00 0.00 0.00 80 1012.8
20260502054540 14 0 0.0 0.0 0.00 0.00 0.00 80 1012.7
20260502054030 14 0 0.0 0.0 0.00 0.00 0.00 80 1012.7
20260502053530 15 0 0.0 0.0 0.00 0.00 0.00 80 1012.7
20260502053047 15 0 0.0 0.0 0.00 0.00 0.00 78 1012.6
20260502052529 15 0 0.0 0.0 0.00 0.00 0.00 78 1012.5
20260502052030 15 0 0.0 1.6 0.00 0.00 0.00 78 1012.4
20260502051548 15 0 0.0 1.6 0.00 0.00 0.00 77 1012.7
20260502051030 15 0 0.0 1.6 0.00 0.00 0.00 77 1012.8
20260502050530 15 0 0.0 3.2 0.00 0.00 0.00 75 1012.8
20260502050043 15 0 0.0 3.2 0.00 0.00 0.00 74 1012.7
20260502045530 15 0 0.0 3.2 0.00 0.00 0.00 73 1012.7
20260502045033 15 294 0.0 4.8 0.00 0.00 0.00 72 1012.7
20260502044542 15 294 0.0 8.0 0.00 0.00 0.00 71 1012.8
20260502044029 15 0 1.6 12.9 0.00 0.00 0.00 71 1012.8
20260502043530 15 296 1.6 12.9 0.00 0.00 0.00 71 1012.7
20260502043046 15 318 4.8 12.9 0.00 0.00 0.00 71 1012.6
20260502042529 15 325 1.6 9.7 0.00 0.00 0.00 70 1012.7
20260502042032 15 333 3.2 9.7 0.00 0.00 0.00 70 1012.9
20260502041552 15 337 1.6 9.7 0.00 0.00 0.00 70 1013.0
20260502041027 15 331 3.2 8.0 0.00 0.00 0.00 70 1013.1
20260502040530 15 312 3.2 6.4 0.00 0.00 0.00 71 1013.2
20260502040046 15 306 0.0 8.0 0.00 0.00 0.00 71 1013.2
20260502035529 15 318 1.6 8.0 0.00 0.00 0.00 71 1013.3
20260502035030 15 319 3.2 8.0 0.00 0.00 0.00 72 1013.3
20260502034541 15 323 3.2 6.4 0.00 0.00 0.00 72 1013.3
20260502034029 15 331 3.2 6.4 0.00 0.00 0.00 73 1013.3
20260502033530 16 0 1.6 6.4 0.00 0.00 0.00 73 1013.3
20260502033046 16 303 0.0 3.2 0.00 0.00 0.00 73 1013.4
20260502032529 16 0 0.0 4.8 0.00 0.00 0.00 73 1013.4
20260502032029 16 304 1.6 6.4 0.00 0.00 0.00 73 1013.5
20260502031539 16 306 3.2 6.4 0.00 0.00 0.00 73 1013.6
20260502031030 15 0 1.6 6.4 0.00 0.00 0.00 72 1013.6
20260502030530 16 302 1.6 4.8 0.00 0.00 0.00 73 1013.6
20260502030040 16 281 1.6 4.8 0.00 0.00 0.00 74 1013.6
20260502025532 16 281 0.0 3.2 0.00 0.00 0.00 73 1013.5
20260502025033 16 0 0.0 3.2 0.00 0.00 0.00 73 1013.6
20260502024555 16 0 0.0 3.2 0.00 0.00 0.00 73 1013.6
20260502024032 16 281 0.0 3.2 0.00 0.00 0.00 73 1013.5
20260502023532 16 281 0.0 3.2 0.00 0.00 0.00 73 1013.5
20260502023044 16 279 0.0 3.2 0.00 0.00 0.00 73 1013.6
20260502022533 16 0 0.0 1.6 0.00 0.00 0.00 73 1013.6
20260502022034 16 0 0.0 1.6 0.00 0.00 0.00 73 1013.6
20260502021540 16 0 0.0 3.2 0.00 0.00 0.00 72 1013.6
20260502021030 16 0 0.0 3.2 0.00 0.00 0.00 72 1013.5
20260502020530 16 0 0.0 3.2 0.00 0.00 0.00 72 1013.5
20260502020040 16 0 0.0 1.6 0.00 0.00 0.00 72 1013.5
20260502015533 16 0 0.0 3.2 0.00 0.00 0.00 72 1013.4
20260502015029 16 0 0.0 4.8 0.00 0.00 0.00 72 1013.3
20260502014538 16 278 0.0 4.8 0.00 0.00 0.00 72 1013.3
20260502014030 16 279 1.6 4.8 0.00 0.00 0.00 71 1013.3
20260502013530 16 0 0.0 3.2 0.00 0.00 0.00 72 1013.3
20260502013043 16 0 0.0 3.2 0.00 0.00 0.00 72 1013.3
20260502012532 16 0 0.0 1.6 0.00 0.00 0.00 72 1013.2
20260502012032 16 0 0.0 1.6 0.00 0.00 0.00 71 1013.1
20260502011540 16 0 0.0 1.6 0.00 0.00 0.00 70 1013.1
20260502011030 16 0 0.0 1.6 0.00 0.00 0.00 70 1012.9
20260502010531 16 0 0.0 0.0 0.00 0.00 0.00 69 1012.7
20260502010049 16 0 0.0 1.6 0.00 0.00 0.00 69 1012.4
20260502005531 16 0 0.0 1.6 0.00 0.00 0.00 68 1012.4
20260502005031 16 0 0.0 1.6 0.00 0.00 0.00 68 1012.4
20260502004555 16 0 0.0 0.0 0.00 0.00 0.00 68 1012.7
20260502004031 17 0 0.0 1.6 0.00 0.00 0.00 68 1012.7
20260502003532 17 0 0.0 4.8 0.00 0.00 0.00 68 1012.8
20260502003041 17 0 0.0 4.8 0.00 0.00 0.00 67 1012.7
20260502002531 17 0 0.0 4.8 0.00 0.00 0.00 66 1012.6
20260502002032 17 0 0.0 3.2 0.00 0.00 0.00 66 1012.7
20260502001541 17 0 0.0 3.2 0.00 0.00 0.00 66 1012.7
20260502001030 17 281 0.0 8.0 0.00 0.00 0.00 66 1012.7
20260502000529 17 0 0.0 9.7 0.00 0.00 0.00 65 1012.5
20260502000042 17 0 1.6 9.7 0.00 0.00 0.00 65 1012.3
20260501235530 17 0 0.0 3.2 0.00 0.00 0.00 65 1012.2
20260501235029 17 0 0.0 3.2 0.00 0.00 0.00 65 1012.2
20260501234538 17 0 0.0 4.8 0.00 0.00 0.00 65 1012.1
20260501234030 17 245 0.0 4.8 0.00 0.00 0.00 65 1012.1
20260501233529 17 244 0.0 4.8 0.00 0.00 0.00 64 1012.3
20260501233046 17 0 0.0 6.4 0.00 0.00 0.00 64 1012.3
20260501232529 17 240 1.6 6.4 0.00 0.00 0.00 64 1012.4
20260501232030 17 242 1.6 6.4 0.00 0.00 0.00 63 1012.4
20260501231543 17 243 1.6 4.8 0.00 0.00 0.00 63 1012.4
20260501231030 17 243 1.6 6.4 0.00 0.00 0.00 62 1012.6
20260501230532 18 244 0.0 6.4 0.00 0.00 0.00 62 1012.4
20260501230043 18 244 1.6 6.4 0.00 0.00 0.00 61 1012.3
20260501225532 18 321 1.6 6.4 0.00 0.00 0.00 61 1012.5
20260501225033 18 0 0.0 6.4 0.00 0.00 0.00 60 1012.3
20260501224547 18 323 1.6 6.4 0.00 0.00 0.00 59 1012.2
20260501224029 18 0 1.6 6.4 0.00 0.00 0.00 59 1012.1
20260501223532 18 326 1.6 6.4 0.00 0.00 0.00 59 1011.9
20260501223045 18 332 0.0 6.4 0.00 0.00 0.00 59 1011.8
20260501222529 18 340 1.6 4.8 0.00 0.00 0.00 57 1011.8
20260501222029 18 341 3.2 6.4 0.00 0.00 0.00 56 1011.8
20260501221542 18 338 3.2 6.4 0.00 0.00 0.00 56 1011.7
20260501221029 18 325 3.2 6.4 0.00 0.00 0.00 57 1011.6
20260501220529 18 325 1.6 6.4 0.00 0.00 0.00 56 1011.7
20260501220048 18 326 3.2 8.0 0.00 0.00 0.00 56 1011.7
20260501215532 18 325 1.6 8.0 0.00 0.00 0.00 56 1011.9
20260501215032 18 327 3.2 8.0 0.00 0.00 0.00 55 1012.0
20260501214540 18 304 1.6 8.0 0.00 0.00 0.00 55 1012.0
20260501214032 18 11 3.2 12.9 0.00 0.00 0.00 55 1012.3
20260501213532 18 294 1.6 12.9 0.00 0.00 0.00 54 1012.4
20260501213048 18 0 3.2 12.9 0.00 0.00 0.00 54 1012.4
20260501212530 18 294 1.6 8.0 0.00 0.00 0.00 53 1012.4
20260501212029 18 0 1.6 6.4 0.00 0.00 0.00 54 1012.5
20260501211538 18 0 3.2 6.4 0.00 0.00 0.00 54 1012.4
20260501211029 18 0 1.6 6.4 0.00 0.00 0.00 54 1012.4
20260501210529 18 315 1.6 6.4 0.00 0.00 0.00 54 1012.5
20260501210045 18 318 1.6 8.0 0.00 0.00 0.00 55 1012.6
20260501205532 18 0 3.2 8.0 0.00 0.00 0.00 54 1012.7
20260501205029 18 254 1.6 6.4 0.00 0.00 0.00 55 1012.8
20260501204542 18 298 1.6 8.0 0.00 0.00 0.00 55 1012.9
20260501204028 18 315 1.6 8.0 0.00 0.00 0.00 54 1013.3
20260501203531 18 297 1.6 8.0 0.00 0.00 0.00 55 1013.4
20260501203040 18 236 3.2 12.9 0.00 0.00 0.00 54 1013.4
20260501202533 18 294 4.8 12.9 0.00 0.00 0.00 54 1013.5
20260501202031 18 209 1.6 6.4 0.00 0.00 0.00 55 1013.5
20260501201542 18 198 3.2 6.4 0.00 0.00 0.00 56 1013.6
20260501201031 18 49 0.0 3.2 0.00 0.00 0.00 55 1013.6